DW2973 Weather Reports


time (UTC)temp
C
wind
direction
speed
KPH
gust
KPH
rain 1hr
cm
rain 24hr
cm
rain mn
cm
humidity
%
barometer
mb
20260502214555 15 229 0.0 0.0 0.00 0.00 0.00 63 1011.1
20260502213055 16 229 0.0 0.0 0.00 0.00 0.00 59 1011.2
20260502211554 16 229 0.0 0.0 0.00 0.00 0.00 60 1011.3
20260502210054 16 229 0.0 0.0 0.00 0.00 0.00 59 1011.3
20260502204558 16 229 0.0 0.0 0.00 0.00 0.00 55 1011.4
20260502203116 17 229 0.0 0.0 0.00 0.00 0.00 52 1011.3
20260502201603 17 229 0.0 0.0 0.00 0.00 0.00 51 1011.5
20260502200058 17 229 0.0 0.0 0.00 0.00 0.00 50 1011.7
20260502194554 17 229 0.0 0.0 0.00 0.00 0.00 48 1011.7
20260502193101 18 227 0.0 0.0 0.00 0.00 0.00 48 1011.6
20260502191550 18 227 0.0 0.0 0.00 0.00 0.00 47 1011.7
20260502190049 19 226 0.0 0.0 0.00 0.00 0.00 45 1011.7
20260502184555 19 232 4.8 0.0 0.00 0.00 0.00 44 1011.7
20260502183049 19 267 0.0 0.0 0.00 0.00 0.00 45 1011.5
20260502181547 20 229 0.0 0.0 0.00 0.00 0.00 46 1011.6
20260502163040 24 220 6.4 0.0 0.00 0.00 0.00 38 1012.0
20260502161540 24 230 8.0 0.0 0.00 0.00 0.00 38 1012.1
20260502151539 24 215 9.7 0.0 0.00 0.00 0.00 37 1012.7
20260502123014 24 225 12.9 0.0 0.00 0.00 0.00 35 1014.4
20260502121514 25 250 9.7 0.0 0.00 0.00 0.00 35 1014.6
20260502114508 24 244 6.4 0.0 0.00 0.00 0.00 37 1015.0
20260502113005 24 241 8.0 0.0 0.00 0.00 0.00 38 1015.2
20260502111503 23 235 8.0 0.0 0.00 0.00 0.00 40 1015.4
20260502110100 23 233 4.8 0.0 0.00 0.00 0.00 45 1015.5
20260502104609 23 233 4.8 0.0 0.00 0.00 0.00 45 1015.7
20260502103056 23 213 1.6 0.0 0.00 0.00 0.00 46 1015.7
20260502101607 22 229 6.4 0.0 0.00 0.00 0.00 47 1015.8
20260502071518 16 165 0.0 0.0 0.00 0.00 0.00 66 1017.2
20260502070030 16 213 0.0 0.0 0.00 0.00 0.00 67 1017.3
20260502064512 15 242 3.2 0.0 0.00 0.00 0.00 68 1017.5
20260502063018 15 239 0.0 0.0 0.00 0.00 0.00 69 1017.5
20260502061512 14 55 0.0 0.0 0.00 0.00 0.00 74 1017.6
20260502060006 12 41 0.0 0.0 0.00 0.00 0.00 78 1017.6
20260502054615 11 141 0.0 0.0 0.00 0.00 0.00 80 1017.8
20260502053058 11 136 0.0 0.0 0.00 0.00 0.00 81 1017.8
20260502051556 10 136 0.0 0.0 0.00 0.00 0.00 82 1018.1
20260502050059 10 128 0.0 0.0 0.00 0.00 0.00 82 1018.2
20260502044554 10 213 0.0 0.0 0.00 0.00 0.00 82 1018.2
20260502043109 10 213 0.0 0.0 0.00 0.00 0.00 83 1018.3
20260502041614 9 213 0.0 0.0 0.00 0.00 0.00 82 1018.4
20260502040056 9 213 0.0 0.0 0.00 0.00 0.00 82 1018.5
20260502034550 9 213 0.0 0.0 0.00 0.00 0.00 81 1018.8
20260502033047 9 215 0.0 0.0 0.00 0.00 0.00 81 1018.9
20260502031546 9 219 0.0 0.0 0.00 0.00 0.00 81 1019.1
20260502030100 9 224 0.0 0.0 0.00 0.00 0.00 82 1019.3
20260502024552 9 224 0.0 0.0 0.00 0.00 0.00 82 1019.3
20260502023055 9 224 0.0 0.0 0.00 0.00 0.00 82 1019.5
20260502021538 9 225 0.0 0.0 0.00 0.00 0.00 82 1019.8
20260502020037 9 227 0.0 0.0 0.00 0.00 0.00 81 1020.0
20260502014538 9 227 0.0 0.0 0.00 0.00 0.00 82 1020.2
20260502013032 9 227 0.0 0.0 0.00 0.00 0.00 81 1020.4
20260502011534 10 227 0.0 0.0 0.00 0.00 0.00 79 1020.5
20260502010029 10 227 0.0 0.0 0.00 0.00 0.00 78 1020.7
20260502004527 10 227 0.0 0.0 0.00 0.00 0.00 77 1020.9
20260502003025 9 227 0.0 0.0 0.00 0.00 0.00 76 1020.9
20260502001530 10 227 0.0 0.0 0.00 0.00 0.00 76 1021.1
20260502000027 10 227 0.0 0.0 0.00 0.00 0.00 76 1021.1
20260501234520 10 227 0.0 0.0 0.00 0.00 0.00 76 1021.3
20260501233020 10 227 0.0 0.0 0.00 0.00 0.00 77 1021.3
20260501231520 10 227 0.0 0.0 0.00 0.00 0.00 79 1021.3
20260501230031 10 227 0.0 0.0 0.00 0.00 0.00 79 1021.6
20260501224511 11 227 0.0 0.0 0.00 0.00 0.00 80 1021.7
20260501223015 11 227 0.0 0.0 0.00 0.00 0.00 80 1021.8
20260501221508 11 227 0.0 0.0 0.00 0.00 0.00 79 1021.8